Theta_e
288 288 288 288 288 288 288 288 288 287 287 286 285 285 284 284 285 284 284 284 284 285 286 287 288 289 289 288 288 288 289 290 287 290 294 299 298 297 297 297 298 298 298
288 287 287 288 288 287 287 287 287 286 286 285 284 284 283 283 284 283 283 283 283 284 285 285 285 287 287 287 286 287 288 289 288 286 290 293 295 297 297 295 295 296 296
287 287 287 287 287 287 287 287 286 285 285 284 283 282 282 282 282 282 282 282 283 284 284 284 285 285 286 287 286 286 287 288 288 287 286 292 293 296 294 295 294 295 295
286 286 286 286 286 286 286 286 285 284 283 282 282 281 281 281 281 281 281 282 283 283 283 283 284 284 285 286 285 285 285 286 286 286 286 287 290 293 294 291 289 291 291
285 285 285 286 286 286 285 284 283 282 281 281 280 280 280 280 280 280 281 281 281 281 283 283 284 284 284 285 284 285 286 285 285 285 285 285 286 289 289 290 289 289 289
285 285 285 285 284 283 282 281 280 280 280 279 279 279 278 279 280 280 280 281 281 281 281 282 283 283 284 284 285 286 286 285 284 284 284 285 285 287 291 290 288 285 282
284 284 284 283 282 281 280 279 278 278 278 277 277 277 277 277 279 280 280 279 279 280 281 282 282 283 282 283 284 285 285 286 287 286 284 285 285 288 289 289 288 287 287
283 282 282 280 279 278 277 276 276 276 276 276 276 275 276 276 278 279 279 279 279 280 280 281 282 282 282 282 282 282 283 285 286 286 286 286 288 289 291 291 290 288 285
280 278 277 276 275 274 273 273 274 274 274 274 275 275 274 275 276 277 278 278 279 280 281 282 282 282 282 282 281 280 281 282 286 288 289 290 290 290 290 290 288 285 280
277 275 273 273 272 271 272 272 273 273 273 274 273 273 273 273 275 276 278 278 278 278 280 281 281 281 281 282 280 280 278 280 282 284 285 287 288 289 290 290 289 285 285
272 271 271 271 270 270 271 271 271 271 271 270 270 272 272 272 274 276 278 277 277 277 278 279 280 280 281 281 282 281 281 282 283 284 284 285 286 287 288 289 290 287 286
270 269 269 269 269 270 269 270 270 270 269 269 269 270 272 273 274 276 277 277 277 276 276 278 278 279 280 281 281 282 283 284 284 284 284 284 285 286 287 288 288 287 289
268 267 267 268 268 269 268 268 268 269 268 268 268 269 270 273 273 275 275 276 277 276 277 277 279 279 279 280 280 282 283 283 284 283 283 284 285 282 277 275 276 276 276
266 266 267 267 268 268 268 268 268 267 267 267 268 269 270 271 272 273 274 275 275 275 276 276 276 277 277 278 280 282 283 285 284 284 284 282 279 278 277 277 277 277 275
266 266 267 268 267 266 267 267 267 268 268 268 269 269 269 269 271 274 274 273 274 275 274 272 272 272 272 274 276 277 278 282 284 284 280 278 277 277 277 278 278 277 275
265 266 266 265 265 265 265 265 268 269 269 270 271 270 270 271 272 273 274 274 275 275 270 268 267 268 268 270 271 272 274 276 284 282 279 278 277 276 276 277 277 277 275
263 263 264 263 263 263 263 262 262 265 267 267 268 268 269 270 271 271 272 273 272 270 265 265 265 266 266 267 268 270 271 273 281 281 279 278 277 276 276 276 276 276 274
259 258 260 262 262 261 261 261 261 260 260 261 264 265 267 267 268 270 271 269 264 264 263 263 263 264 264 265 266 267 269 271 276 281 279 278 277 276 276 275 275 274 273
260 261 261 260 260 259 259 259 260 259 259 259 260 262 263 264 267 268 267 262 261 261 262 262 263 263 263 263 264 266 267 269 270 281 279 278 277 276 276 276 275 274 273
259 256 257 258 258 258 258 258 258 258 258 257 258 258 259 262 262 261 261 261 261 261 261 261 262 262 262 262 263 265 266 268 269 280 279 278 277 277 276 275 274 272 273
259 258 255 257 257 257 257 256 256 256 256 256 256 258 264 261 259 259 259 260 260 260 260 261 261 261 262 263 263 264 266 267 270 273 280 278 277 276 277 276 274 274 272
258 257 256 255 256 256 255 255 255 254 254 254 255 256 261 257 258 259 259 260 260 261 261 261 261 262 262 262 263 264 265 266 268 269 280 278 278 278 277 276 275 273 270
257 256 256 255 255 253 254 255 254 254 254 254 254 255 256 257 257 258 259 260 260 261 262 262 262 262 263 265 266 266 266 267 269 270 270 279 278 278 277 276 274 272 271
255 255 254 254 254 253 253 253 254 253 253 253 254 255 255 256 257 257 258 260 260 261 262 263 263 263 264 265 268 270 270 271 271 271 270 280 279 278 277 276 275 273 271
255 254 253 253 253 253 253 253 253 253 254 254 254 254 255 256 256 258 259 259 260 260 262 262 263 265 266 268 269 271 272 273 272 272 271 281 280 278 277 275 274 273 271
254 253 253 253 253 253 253 253 253 253 253 254 254 254 254 255 256 257 258 258 259 260 261 263 264 266 269 271 273 274 275 276 275 275 275 282 279 278 276 275 274 272 271
Wind_Speed
8 7 8 9 9 9 9 11 11 12 13 14 15 16 16 16 15 14 14 15 15 15 15 15 16 15 10 10 10 10 10 11 15 13 11 14 7 9 8 9 10 12 11
8 8 9 9 9 9 10 12 11 12 13 14 15 16 16 16 16 15 16 15 15 15 16 16 17 12 15 12 11 13 11 12 13 21 15 11 12 10 9 9 10 10 11
8 8 9 9 9 9 11 11 11 13 14 15 15 16 17 17 16 16 16 16 16 16 16 17 18 17 17 13 13 11 11 11 13 14 16 13 12 8 8 9 9 10 9
8 8 9 9 9 9 10 11 12 13 14 15 15 17 17 17 17 16 16 16 17 16 16 16 18 18 18 17 14 15 15 13 13 13 13 14 12 10 9 7 6 6 7
8 8 9 8 8 9 10 11 12 13 13 14 15 16 17 16 12 16 17 18 17 18 17 17 16 17 24 21 13 15 14 13 12 13 13 13 13 9 8 5 9 7 8
9 9 8 7 8 9 10 12 12 13 13 14 15 16 17 12 21 25 21 17 18 18 17 17 16 19 20 25 26 29 24 16 16 13 14 14 17 13 12 9 9 5 5
9 8 7 7 8 9 11 12 12 13 14 14 15 16 17 17 24 25 26 16 18 17 18 16 15 12 18 18 23 27 26 26 26 18 19 18 19 16 13 14 12 10 9
7 6 5 6 8 10 10 11 12 12 13 13 14 14 16 15 25 26 26 18 15 18 18 18 18 18 18 19 20 19 20 19 18 15 18 21 20 17 17 15 14 14 3
4 4 4 6 9 9 10 11 12 12 13 13 14 15 16 16 25 25 22 15 15 17 16 18 17 18 23 27 20 19 19 21 21 26 29 31 32 33 28 14 12 10 5
3 3 4 6 7 9 10 11 10 12 13 12 14 15 18 16 23 23 19 11 13 13 15 16 21 20 28 29 19 18 19 22 21 20 17 20 23 21 27 21 13 13 10
1 3 4 6 7 9 10 10 11 13 13 13 14 14 15 16 16 22 22 12 12 12 13 13 13 27 31 33 33 20 22 25 26 20 17 14 13 14 12 13 16 14 12
2 3 5 6 6 7 10 10 11 12 13 12 13 12 11 13 18 18 23 23 23 14 14 13 15 31 35 36 31 34 36 30 15 15 13 13 11 11 10 10 13 12 11
3 4 6 6 7 7 9 10 10 10 10 11 11 11 11 11 11 21 21 25 24 17 13 21 33 34 35 27 31 32 30 15 13 12 12 11 6 2 3 2 5 9 8
4 5 5 6 6 7 7 7 9 9 10 10 11 11 11 12 11 10 12 12 18 17 20 16 23 28 28 24 18 17 14 12 11 10 10 1 1 2 2 1 2 5 4
4 5 5 5 7 8 7 8 9 9 11 11 11 11 12 12 12 23 21 15 14 17 21 13 12 12 12 12 12 12 13 14 9 6 4 3 4 4 4 3 3 4 4
4 4 4 6 6 7 8 9 14 18 19 21 20 16 11 23 26 28 29 29 27 28 13 11 11 11 12 13 13 14 13 16 10 4 4 5 5 5 5 4 4 2 7
4 5 5 5 6 7 8 9 11 13 19 14 16 20 22 22 26 27 27 28 27 21 9 10 11 11 12 12 12 12 14 13 16 5 5 5 4 4 6 5 5 5 5
3 5 5 5 6 7 7 8 8 9 11 12 13 17 19 22 24 24 26 22 11 10 9 10 10 11 11 12 12 12 13 12 14 6 5 4 5 5 5 6 5 6 7
4 4 4 5 6 7 7 8 8 9 9 10 12 12 12 21 22 22 20 9 10 10 10 10 10 11 11 11 12 12 13 13 14 9 4 4 4 5 5 5 5 6 9
4 6 5 5 5 6 6 7 8 8 9 9 9 11 11 12 10 10 10 10 9 10 10 10 11 11 11 11 11 11 12 12 12 9 4 4 4 5 5 6 6 7 6
3 4 4 5 5 5 6 7 7 8 9 9 10 11 22 12 11 10 10 10 10 10 11 11 11 11 10 11 11 11 11 12 11 13 5 4 4 5 5 5 7 6 7
4 4 4 5 5 6 6 7 7 8 8 9 10 11 21 9 10 10 10 11 11 11 10 11 11 11 11 11 12 12 12 12 12 11 7 4 5 5 5 6 7 7 8
4 5 5 5 5 6 6 6 7 7 8 9 10 10 9 9 9 10 11 11 11 12 11 11 12 12 11 11 11 12 12 12 11 11 12 6 6 5 6 6 7 8 8
4 5 5 5 5 5 6 7 7 8 8 9 9 9 9 10 10 12 12 11 12 13 12 12 12 17 15 14 13 12 12 12 10 11 14 8 5 7 6 7 7 9 9
4 4 5 5 5 6 6 7 7 7 8 8 9 9 10 10 10 11 12 11 12 13 15 15 13 17 20 24 23 23 20 20 15 15 10 9 8 9 7 7 8 8 10
4 4 4 4 5 5 6 6 7 8 8 9 9 9 10 10 10 11 11 13 12 14 17 13 17 24 25 20 21 23 23 21 16 15 11 7 7 7 8 8 11 8 11
Wind_Direction
266 283 295 301 300 302 300 308 310 311 314 316 316 316 315 312 310 306 301 299 296 297 294 290 290 293 287 290 291 287 286 292 290 291 289 302 270 239 236 223 228 225 219
267 277 286 292 295 297 305 311 312 309 312 312 312 310 309 307 307 304 301 300 295 294 295 293 292 292 291 286 289 288 284 287 289 293 291 289 276 255 244 232 227 225 222
267 270 281 291 297 300 307 311 311 310 310 311 310 309 308 306 304 301 299 297 293 293 294 292 293 294 289 290 286 284 289 289 286 287 292 289 284 260 245 234 228 226 225
271 271 283 294 300 306 311 311 311 312 310 311 311 308 306 304 301 299 297 297 295 294 292 288 288 288 287 289 289 288 290 289 286 281 284 288 287 270 241 232 229 221 223
276 277 286 296 301 307 309 310 308 307 307 309 309 307 306 301 299 300 301 299 294 292 290 289 286 284 286 281 284 282 281 285 285 283 280 281 282 274 243 226 225 215 221
281 284 294 296 304 307 310 310 306 307 308 308 307 306 304 299 299 299 300 296 296 290 291 289 288 290 288 289 288 288 281 283 281 280 280 273 275 270 272 240 216 192 227
281 286 291 301 303 309 309 306 305 307 309 307 304 305 302 301 300 301 303 298 293 289 288 289 287 286 291 288 289 289 285 282 275 277 272 269 276 267 264 254 221 209 217
278 284 292 302 305 306 304 303 305 306 305 304 302 299 295 296 299 304 304 296 290 289 290 288 289 289 290 295 294 291 284 279 280 275 267 270 269 269 259 252 237 225 227
260 273 304 308 301 300 301 301 304 304 304 302 300 300 296 296 301 303 306 297 293 287 289 289 287 290 292 297 295 291 289 285 280 275 272 265 264 265 259 270 235 209 192
241 279 298 288 291 296 298 299 302 300 297 301 299 300 296 296 302 303 306 295 295 297 294 289 288 290 295 299 297 293 287 284 288 284 278 271 266 266 256 246 239 212 210
218 277 283 284 292 292 294 297 301 302 301 299 299 301 298 297 299 305 304 306 301 302 298 299 297 301 302 300 296 288 280 286 283 280 276 272 263 257 249 242 225 204 207
264 279 285 289 288 290 294 298 301 302 303 306 305 303 300 302 299 305 308 310 305 302 300 299 300 300 300 300 299 292 290 289 279 273 271 266 261 252 247 238 213 206 214
281 287 287 289 287 289 300 306 308 309 307 308 309 308 302 305 307 308 311 306 309 309 301 296 304 305 302 301 295 294 291 278 273 273 268 262 260 269 117 69 67 88 66
273 286 287 283 297 296 301 302 302 306 309 308 303 303 309 304 308 313 305 310 311 308 306 307 305 304 299 293 300 297 302 283 278 279 277 284 137 192 201 216 149 147 103
271 277 287 294 302 305 301 301 295 298 300 301 306 303 307 307 308 310 315 316 311 310 320 312 305 309 307 307 306 305 307 304 283 267 248 231 219 209 202 184 170 162 135
272 283 299 298 306 305 307 303 295 298 305 306 306 311 309 307 310 315 316 311 316 323 314 308 307 308 308 311 311 311 310 312 293 254 242 237 226 210 193 175 174 186 150
278 295 299 295 306 310 309 308 311 314 314 310 313 316 315 312 321 318 313 321 323 324 307 306 304 307 307 307 307 306 307 308 301 252 244 232 220 205 189 177 169 145 136
274 276 285 298 301 304 302 305 306 308 312 311 317 316 316 324 321 317 328 327 318 319 310 308 304 303 305 304 305 306 306 306 307 264 243 230 209 196 190 179 169 150 143
275 283 296 293 294 298 296 298 299 301 302 302 311 315 326 321 314 326 329 317 311 308 308 304 301 300 301 300 301 301 301 303 303 277 238 220 205 195 194 171 152 145 143
254 260 281 293 299 300 301 300 302 304 304 306 310 310 321 309 329 324 321 317 310 305 306 303 302 301 300 299 300 301 304 309 310 294 243 213 204 197 183 161 152 151 151
280 285 290 287 293 300 303 302 303 303 302 304 303 306 313 331 317 315 313 309 307 304 304 303 302 300 298 297 298 299 300 300 303 307 247 214 193 197 177 159 151 151 131
287 297 301 303 305 302 304 301 299 298 301 304 306 307 319 316 313 309 307 304 302 299 296 296 296 296 295 293 293 294 296 298 301 304 275 204 199 186 174 155 149 136 133
294 306 307 304 301 304 298 301 299 302 306 305 306 309 315 313 311 307 306 305 303 302 301 298 295 295 291 287 286 284 284 286 288 293 299 239 191 182 173 161 150 145 147
300 304 304 302 304 307 303 307 305 301 301 305 307 308 309 309 308 305 304 305 305 304 303 301 299 296 294 289 287 283 275 274 274 281 285 252 190 173 170 162 156 153 139
304 305 305 308 308 306 306 307 308 308 308 306 307 308 308 308 306 306 307 306 306 306 308 307 299 302 301 301 296 293 284 279 268 263 270 241 184 172 165 156 152 142 138
304 301 300 298 297 299 302 306 308 308 308 309 307 306 306 305 303 305 307 307 308 311 308 305 304 305 305 306 304 301 299 291 276 257 252 206 173 162 157 154 149 143 150